This is the latest recevied weather packets stored in our database for station/object KC4GS-13. If no packets are shown the sender has not sent any weather packets the latest 10 day(s).
| Time | Temp. | Humidity | Pressure | Rain* | Wind** | Luminosity | Snow |
|---|---|---|---|---|---|---|---|
| 1787790316 | 24.44° C | 98% | 1016.6 hPa | 0 mm | - | 0 W/m² | - |
| 1787790012 | 23.89° C | 97% | 1016.6 hPa | 0 mm | - | 0 W/m² | - |
| 1787789708 | 23.89° C | 97% | 1016.7 hPa | 0 mm | - | 0 W/m² | - |
| 1787789403 | 23.89° C | 97% | 1016.4 hPa | 0 mm | - | 0 W/m² | - |
| 1787789096 | 24.44° C | 97% | 1016.1 hPa | 0 mm | - | 0 W/m² | - |
| 1787788794 | 24.44° C | 97% | 1016.2 hPa | 0 mm | - | 0 W/m² | - |
| 1787788489 | 24.44° C | 97% | 1016.3 hPa | 0 mm | - | 2 W/m² | - |
| 1787788188 | 24.44° C | 97% | 1016.1 hPa | 0 mm | - | 3 W/m² | - |
| 1787787884 | 25° C | 97% | 1016.3 hPa | 0 mm | - | 4 W/m² | - |
| 1787787579 | 24.44° C | 97% | 1016.4 hPa | 0 mm | - | 5 W/m² | - |
| 1787787273 | 24.44° C | 97% | 1016.4 hPa | 0 mm | - | 8 W/m² | - |
| 1787786972 | 24.44° C | 96% | 1016.5 hPa | 0 mm | - | 13 W/m² | - |
| 1787786667 | 24.44° C | 96% | 1016.4 hPa | 0 mm | - | 22 W/m² | - |
| 1787786366 | 24.44° C | 96% | 1016.3 hPa | 0 mm | - | 26 W/m² | - |
| 1787786063 | 24.44° C | 96% | 1016.5 hPa | 0 mm | - | 23 W/m² | - |
| 1787785759 | 24.44° C | 96% | 1016.4 hPa | 0 mm | - | 24 W/m² | - |
| 1787785454 | 24.44° C | 95% | 1016.3 hPa | 0 mm | - | 23 W/m² | - |
| 1787785153 | 24.44° C | 95% | 1016.4 hPa | 0 mm | - | 29 W/m² | - |
| 1787784849 | 25° C | 95% | 1016.3 hPa | 0 mm | - | 37 W/m² | - |
| 1787784547 | 25° C | 94% | 1016.4 hPa | 0 mm | - | 34 W/m² | - |
| 1787784241 | 25° C | 94% | 1016.4 hPa | 0 mm | - | 49 W/m² | - |
| 1787783936 | 25° C | 93% | 1016.5 hPa | 3.05 mm | - | 55 W/m² | - |
| 1787783633 | 25° C | 92% | 1016.4 hPa | 10.67 mm | - | 64 W/m² | - |
| 1787783332 | 26.11° C | 90% | 1016.7 hPa | 13.72 mm | - | 93 W/m² | - |
| 1787783028 | 26.67° C | 88% | 1016.9 hPa | 8.89 mm | - | 50 W/m² | - |
* Rain latest hour (hover to see other rain measurements)
** Current wind speed in m/s (hover to see current wind gust speed)